{"data":{"norad_id":54777,"epoch":"2026-09-20T14:04:03.355680Z","epoch_age_seconds":81831,"freshness":"FRESH","line1":"1 54777U 22175V   26263.58614995 -.00000645  00000+0 -79588-5 0  9991","line2":"2 54777  53.1588 237.1851 0001288  63.4225 296.6909 15.34385720209505","mean_motion":15.3438572,"eccentricity":0.0001288,"inclination_deg":53.1588,"raan_deg":237.1851,"arg_perigee_deg":63.4225,"mean_anomaly_deg":296.6909,"bstar":-7.9588e-6,"rev_number":20950,"period_min":93.848631490131,"perigee_km":461.86457801599,"apogee_km":463.62678939531,"semimajor_km":6840.8826837056,"source":"CELESTRAK","updated_at":"2026-09-21T09:00:33.123842Z"}}